Location: Étouvelles
(49.5207°N, 3.5808°E)
Time: 00:23:03
(UTC+00:00)

Cosmos 540 Rocket - Pass Details

Date: 25 September 2023
Orbit: 737 x 752 km, 74.1° (Epoch: 03 December)

Event Time Altitude Azimuth Distance (km) Brightness Sun altitude
Rises 21:08:26 0° 340° (NNW) 3,184 7.6 -32.0°
Reaches altitude 10° 21:10:56 10° 348° (NNW) 2,258 6.6 -32.3°
Enters shadow 21:13:35 27° 8° (N) 1,398 5.1 -32.6°
